INTELSAT 30 (IS-30) (40271 NORAD) Tracking and Keplerian Element Data

This shows tracking and keplerian element data for the satellite.

Feedback or suggestion? Click here.




ElementValue
Catalog40271
NameINTELSAT 30 (IS-30)
Epoch Orbit1528
Epoch Day349.58226049
Epoch Year2018
RAAN9.9164
Inclination0.0179
Eccentricity0.0001961
Argument of Perigee108.1787
Mean Anonmoly80.6613
Mean Motion1.0027149
Decay Rate-1.38E-06
L11 40271U 14062A 18349.58226049 -.00000138 00000-0 00000+0 0 9990
L22 40271 0.0179 9.9164 0001961 108.1787 80.6613 1.00271490 15285

Live tracking and technical data element details for INTELSAT 30 (IS-30) (NORAD 40271). INTELSAT 30 (IS-30) can be tracked NOW for your location showing map with azimuth and elevation plus other details from your city location.

Track the satellite on the map from your city or location and see movement details for azimuth, elevation, latitude, longitude, range, height, and movement on the map or in text.







IsCatalogInMostPopularTable: catalog: 40271, numindb: 151
Update: records affected: 1



GetName: 40271 INTELSAT 30 (IS-30)

Hit Count: updated at: Sun, 16 Dec 2018 10:08:12 GMT